QPF
0.01 0.01 0.01 0.00 0.00 0.00 0.00 0.00 0.01 0.01 0.00 0.01 0.01 0.01 0.02 0.03 0.03 0.03 0.01 0.01 0.01 0.02 0.01 0.01 0.01 0.01 0.01 0.00 0.01 0.01 0.01 0.01 0.02 0.02 0.01 0.01 0.00 0.01 0.00 0.00 0.00 0.00 0.00
0.01 0.01 0.01 0.01 0.00 0.00 0.00 0.00 0.00 0.00 0.00 0.01 0.01 0.01 0.01 0.01 0.02 0.02 0.01 0.01 0.02 0.03 0.02 0.01 0.01 0.01 0.01 0.01 0.01 0.01 0.01 0.01 0.01 0.02 0.01 0.01 0.01 0.01 0.01 0.01 0.00 0.00 0.01
0.01 0.01 0.01 0.01 0.01 0.01 0.00 0.00 0.00 0.00 0.00 0.00 0.00 0.00 0.01 0.02 0.02 0.01 0.01 0.01 0.01 0.02 0.02 0.02 0.01 0.01 0.01 0.01 0.01 0.01 0.01 0.01 0.01 0.01 0.01 0.01 0.00 0.01 0.01 0.01 0.01 0.01 0.01
0.01 0.01 0.02 0.02 0.02 0.01 0.01 0.01 0.00 0.00 0.00 0.00 0.00 0.01 0.01 0.01 0.01 0.01 0.02 0.02 0.01 0.01 0.01 0.02 0.01 0.01 0.01 0.01 0.01 0.01 0.01 0.01 0.01 0.01 0.01 0.01 0.00 0.01 0.01 0.02 0.01 0.01 0.01
0.01 0.01 0.02 0.02 0.02 0.01 0.01 0.01 0.00 0.00 0.00 0.01 0.01 0.00 0.01 0.01 0.01 0.01 0.01 0.01 0.01 0.01 0.01 0.01 0.01 0.00 0.00 0.01 0.00 0.01 0.01 0.01 0.01 0.01 0.01 0.01 0.01 0.01 0.01 0.01 0.01 0.01 0.01
0.01 0.01 0.02 0.03 0.02 0.01 0.01 0.01 0.01 0.01 0.01 0.01 0.01 0.01 0.00 0.00 0.00 0.01 0.01 0.01 0.01 0.01 0.01 0.01 0.00 0.00 0.00 0.01 0.01 0.01 0.01 0.02 0.02 0.02 0.02 0.02 0.02 0.01 0.01 0.02 0.02 0.02 0.02
0.03 0.04 0.04 0.03 0.02 0.02 0.02 0.02 0.02 0.02 0.01 0.01 0.01 0.00 0.00 0.00 0.00 0.00 0.01 0.01 0.01 0.01 0.01 0.01 0.01 0.01 0.01 0.01 0.01 0.01 0.01 0.01 0.02 0.02 0.02 0.03 0.03 0.03 0.02 0.01 0.02 0.02 0.03
0.04 0.04 0.03 0.03 0.03 0.03 0.03 0.02 0.02 0.01 0.01 0.01 0.01 0.01 0.01 0.01 0.01 0.01 0.01 0.01 0.01 0.01 0.01 0.01 0.01 0.02 0.02 0.02 0.02 0.02 0.01 0.01 0.01 0.01 0.02 0.03 0.03 0.03 0.03 0.02 0.03 0.02 0.03
0.04 0.04 0.05 0.06 0.06 0.05 0.03 0.03 0.02 0.01 0.01 0.01 0.01 0.02 0.02 0.02 0.02 0.02 0.02 0.02 0.02 0.02 0.02 0.01 0.01 0.01 0.02 0.02 0.02 0.02 0.02 0.02 0.02 0.02 0.02 0.01 0.01 0.01 0.01 0.01 0.02 0.02 0.02
0.06 0.07 0.07 0.06 0.04 0.03 0.02 0.03 0.02 0.02 0.01 0.01 0.02 0.02 0.03 0.03 0.02 0.02 0.02 0.02 0.02 0.02 0.02 0.02 0.02 0.02 0.02 0.02 0.01 0.01 0.02 0.02 0.02 0.02 0.01 0.02 0.01 0.01 0.01 0.02 0.02 0.03 0.04
0.07 0.07 0.06 0.05 0.04 0.03 0.02 0.02 0.02 0.02 0.02 0.02 0.02 0.02 0.03 0.04 0.03 0.02 0.03 0.02 0.02 0.02 0.02 0.02 0.02 0.03 0.02 0.02 0.01 0.01 0.01 0.01 0.01 0.02 0.02 0.02 0.02 0.02 0.02 0.02 0.02 0.03 0.04
0.07 0.08 0.09 0.07 0.05 0.04 0.04 0.03 0.03 0.03 0.02 0.03 0.04 0.04 0.04 0.04 0.03 0.03 0.03 0.03 0.02 0.03 0.03 0.03 0.03 0.03 0.02 0.01 0.01 0.01 0.01 0.01 0.01 0.01 0.01 0.02 0.02 0.02 0.03 0.03 0.03 0.03 0.03
0.05 0.05 0.04 0.04 0.04 0.04 0.05 0.06 0.05 0.05 0.05 0.05 0.06 0.05 0.05 0.04 0.04 0.05 0.05 0.04 0.04 0.04 0.04 0.04 0.04 0.03 0.02 0.02 0.01 0.01 0.01 0.01 0.01 0.02 0.02 0.02 0.02 0.02 0.02 0.02 0.02 0.02 0.02
0.04 0.03 0.03 0.03 0.03 0.04 0.06 0.08 0.09 0.08 0.08 0.08 0.07 0.06 0.05 0.05 0.05 0.05 0.04 0.04 0.05 0.06 0.06 0.04 0.03 0.03 0.03 0.03 0.02 0.01 0.01 0.01 0.01 0.02 0.02 0.02 0.02 0.02 0.02 0.02 0.02 0.01 0.02
0.03 0.03 0.03 0.03 0.04 0.04 0.06 0.07 0.08 0.09 0.10 0.11 0.09 0.06 0.05 0.04 0.05 0.05 0.05 0.04 0.05 0.06 0.06 0.05 0.05 0.04 0.04 0.02 0.01 0.01 0.02 0.01 0.01 0.01 0.02 0.02 0.02 0.02 0.02 0.02 0.02 0.02 0.01
0.04 0.04 0.04 0.04 0.04 0.05 0.06 0.07 0.09 0.10 0.09 0.07 0.06 0.05 0.04 0.04 0.04 0.04 0.04 0.03 0.04 0.05 0.06 0.06 0.05 0.04 0.02 0.02 0.02 0.02 0.03 0.02 0.02 0.03 0.03 0.03 0.02 0.02 0.02 0.01 0.01 0.01 0.02
0.06 0.08 0.06 0.04 0.04 0.04 0.04 0.03 0.03 0.03 0.03 0.04 0.05 0.04 0.03 0.03 0.03 0.03 0.03 0.03 0.04 0.05 0.05 0.04 0.03 0.02 0.01 0.01 0.01 0.02 0.02 0.02 0.02 0.03 0.03 0.03 0.03 0.02 0.02 0.02 0.02 0.02 0.02
0.04 0.05 0.06 0.06 0.04 0.03 0.03 0.03 0.02 0.01 0.01 0.02 0.02 0.02 0.02 0.03 0.03 0.04 0.04 0.04 0.04 0.03 0.03 0.03 0.02 0.02 0.01 0.01 0.02 0.02 0.02 0.02 0.03 0.03 0.04 0.05 0.05 0.05 0.04 0.04 0.05 0.05 0.05
0.03 0.03 0.04 0.05 0.05 0.06 0.05 0.05 0.04 0.03 0.02 0.02 0.02 0.02 0.02 0.03 0.03 0.05 0.05 0.03 0.02 0.02 0.02 0.02 0.02 0.02 0.02 0.02 0.03 0.03 0.03 0.04 0.06 0.07 0.09 0.09 0.08 0.07 0.07 0.06 0.06 0.07 0.06
0.05 0.06 0.06 0.06 0.06 0.06 0.06 0.06 0.05 0.05 0.04 0.04 0.03 0.02 0.02 0.02 0.01 0.02 0.02 0.02 0.02 0.02 0.02 0.02 0.02 0.03 0.03 0.03 0.03 0.03 0.04 0.05 0.06 0.07 0.07 0.06 0.06 0.06 0.05 0.06 0.06 0.07 0.07
0.08 0.07 0.06 0.05 0.06 0.08 0.07 0.06 0.06 0.06 0.06 0.06 0.05 0.05 0.04 0.03 0.03 0.02 0.02 0.02 0.03 0.04 0.04 0.04 0.03 0.02 0.02 0.03 0.03 0.03 0.04 0.04 0.05 0.05 0.05 0.06 0.05 0.05 0.05 0.06 0.07 0.09 0.10
0.04 0.03 0.03 0.04 0.06 0.08 0.06 0.05 0.05 0.05 0.05 0.05 0.06 0.07 0.05 0.04 0.03 0.02 0.02 0.02 0.03 0.03 0.03 0.04 0.03 0.03 0.03 0.03 0.04 0.04 0.04 0.04 0.04 0.05 0.05 0.06 0.07 0.07 0.07 0.07 0.08 0.09 0.09
0.01 0.01 0.01 0.02 0.03 0.04 0.03 0.03 0.03 0.03 0.03 0.03 0.04 0.05 0.03 0.03 0.02 0.02 0.02 0.02 0.02 0.02 0.03 0.04 0.05 0.05 0.05 0.05 0.05 0.04 0.04 0.04 0.04 0.05 0.05 0.07 0.09 0.10 0.09 0.09 0.10 0.10 0.09
0.01 0.01 0.01 0.01 0.02 0.02 0.02 0.02 0.02 0.02 0.02 0.02 0.02 0.03 0.03 0.03 0.03 0.02 0.02 0.02 0.03 0.03 0.03 0.03 0.03 0.04 0.04 0.04 0.04 0.04 0.04 0.04 0.04 0.05 0.05 0.06 0.08 0.10 0.12 0.13 0.12 0.10 0.10
0.01 0.01 0.01 0.01 0.02 0.02 0.02 0.03 0.03 0.03 0.03 0.03 0.03 0.03 0.03 0.03 0.03 0.03 0.03 0.03 0.04 0.04 0.03 0.03 0.03 0.03 0.03 0.03 0.03 0.04 0.04 0.04 0.04 0.04 0.05 0.06 0.08 0.09 0.10 0.11 0.11 0.10 0.09
0.02 0.02 0.01 0.01 0.02 0.01 0.02 0.02 0.02 0.02 0.02 0.02 0.03 0.03 0.03 0.03 0.03 0.04 0.04 0.05 0.05 0.04 0.03 0.03 0.04 0.04 0.04 0.04 0.04 0.04 0.04 0.04 0.04 0.05 0.06 0.07 0.08 0.09 0.09 0.10 0.11 0.12 0.12
MSLP
1011.83 1012.27 1012.70 1013.06 1013.36 1013.57 1013.71 1013.80 1013.89 1013.99 1014.14 1014.33 1014.56 1014.81 1015.03 1015.22 1015.33 1015.38 1015.35 1015.27 1015.17 1015.08 1015.02 1015.01 1015.03 1015.08 1015.13 1015.15 1015.14 1015.08 1014.97 1014.85 1014.73 1014.67 1014.68 1014.81 1015.04 1015.38 1015.79 1016.25 1016.71 1017.12 1017.45
1011.29 1011.75 1012.18 1012.58 1012.90 1013.15 1013.34 1013.48 1013.59 1013.72 1013.86 1014.04 1014.25 1014.46 1014.65 1014.80 1014.89 1014.91 1014.87 1014.80 1014.70 1014.62 1014.57 1014.55 1014.58 1014.63 1014.69 1014.74 1014.76 1014.74 1014.69 1014.63 1014.59 1014.58 1014.65 1014.80 1015.04 1015.37 1015.75 1016.16 1016.57 1016.93 1017.22
1010.79 1011.25 1011.71 1012.12 1012.47 1012.75 1012.96 1013.12 1013.25 1013.37 1013.49 1013.64 1013.80 1013.96 1014.11 1014.22 1014.29 1014.30 1014.27 1014.21 1014.14 1014.08 1014.05 1014.05 1014.08 1014.14 1014.21 1014.27 1014.32 1014.34 1014.35 1014.35 1014.38 1014.44 1014.56 1014.75 1015.01 1015.32 1015.68 1016.04 1016.38 1016.69 1016.94
1010.30 1010.78 1011.25 1011.68 1012.05 1012.34 1012.57 1012.73 1012.85 1012.95 1013.05 1013.15 1013.26 1013.37 1013.47 1013.55 1013.60 1013.62 1013.61 1013.59 1013.56 1013.54 1013.54 1013.57 1013.61 1013.68 1013.75 1013.81 1013.87 1013.92 1013.96 1014.02 1014.11 1014.23 1014.41 1014.63 1014.91 1015.21 1015.53 1015.85 1016.14 1016.39 1016.59
1009.80 1010.30 1010.78 1011.23 1011.61 1011.91 1012.14 1012.30 1012.41 1012.49 1012.54 1012.59 1012.65 1012.71 1012.77 1012.83 1012.88 1012.93 1012.96 1012.99 1013.02 1013.06 1013.11 1013.17 1013.23 1013.30 1013.37 1013.43 1013.48 1013.54 1013.60 1013.69 1013.81 1013.97 1014.18 1014.43 1014.71 1015.01 1015.30 1015.57 1015.81 1016.00 1016.17
1009.25 1009.76 1010.25 1010.70 1011.09 1011.41 1011.64 1011.80 1011.90 1011.96 1011.99 1012.00 1012.02 1012.04 1012.08 1012.13 1012.19 1012.27 1012.36 1012.45 1012.56 1012.67 1012.78 1012.89 1012.98 1013.06 1013.12 1013.17 1013.21 1013.25 1013.31 1013.40 1013.52 1013.70 1013.91 1014.16 1014.43 1014.71 1014.96 1015.19 1015.38 1015.55 1015.68
1008.59 1009.10 1009.60 1010.06 1010.46 1010.79 1011.03 1011.20 1011.30 1011.35 1011.36 1011.36 1011.35 1011.36 1011.39 1011.45 1011.54 1011.66 1011.82 1011.99 1012.18 1012.38 1012.56 1012.73 1012.86 1012.96 1013.03 1013.06 1013.08 1013.09 1013.12 1013.18 1013.28 1013.43 1013.62 1013.84 1014.08 1014.32 1014.53 1014.73 1014.89 1015.02 1015.14
1007.83 1008.32 1008.81 1009.27 1009.67 1010.00 1010.26 1010.45 1010.57 1010.63 1010.65 1010.65 1010.65 1010.66 1010.70 1010.78 1010.91 1011.09 1011.31 1011.57 1011.85 1012.13 1012.41 1012.64 1012.84 1012.97 1013.05 1013.08 1013.08 1013.06 1013.04 1013.05 1013.10 1013.19 1013.33 1013.50 1013.68 1013.87 1014.04 1014.20 1014.33 1014.46 1014.58
1006.98 1007.43 1007.88 1008.32 1008.71 1009.05 1009.32 1009.53 1009.67 1009.76 1009.81 1009.84 1009.86 1009.89 1009.96 1010.08 1010.25 1010.49 1010.78 1011.12 1011.49 1011.87 1012.23 1012.56 1012.82 1013.00 1013.12 1013.16 1013.15 1013.10 1013.04 1013.00 1012.98 1013.00 1013.06 1013.15 1013.27 1013.40 1013.53 1013.66 1013.78 1013.90 1014.04
1006.10 1006.47 1006.86 1007.25 1007.61 1007.94 1008.21 1008.44 1008.61 1008.73 1008.82 1008.89 1008.95 1009.03 1009.14 1009.30 1009.52 1009.82 1010.18 1010.60 1011.05 1011.52 1011.97 1012.38 1012.72 1012.98 1013.14 1013.21 1013.21 1013.15 1013.06 1012.97 1012.88 1012.83 1012.81 1012.83 1012.88 1012.95 1013.04 1013.14 1013.25 1013.39 1013.56
1005.23 1005.50 1005.81 1006.12 1006.42 1006.71 1006.97 1007.20 1007.40 1007.56 1007.70 1007.82 1007.93 1008.06 1008.23 1008.44 1008.72 1009.07 1009.49 1009.97 1010.50 1011.04 1011.57 1012.06 1012.48 1012.81 1013.04 1013.16 1013.18 1013.13 1013.03 1012.90 1012.77 1012.65 1012.57 1012.52 1012.51 1012.54 1012.59 1012.68 1012.80 1012.95 1013.15
1004.43 1004.58 1004.76 1004.97 1005.19 1005.41 1005.64 1005.86 1006.07 1006.27 1006.46 1006.64 1006.82 1007.02 1007.25 1007.53 1007.86 1008.26 1008.73 1009.27 1009.84 1010.44 1011.04 1011.59 1012.08 1012.47 1012.76 1012.93 1013.00 1012.98 1012.89 1012.75 1012.59 1012.44 1012.32 1012.22 1012.18 1012.17 1012.21 1012.30 1012.43 1012.61 1012.83
1003.69 1003.70 1003.74 1003.83 1003.94 1004.09 1004.27 1004.47 1004.70 1004.93 1005.17 1005.43 1005.69 1005.97 1006.28 1006.63 1007.02 1007.47 1007.98 1008.55 1009.15 1009.78 1010.40 1010.99 1011.52 1011.96 1012.30 1012.52 1012.63 1012.65 1012.59 1012.47 1012.32 1012.17 1012.03 1011.92 1011.86 1011.85 1011.89 1011.99 1012.14 1012.33 1012.58
1002.98 1002.84 1002.74 1002.70 1002.71 1002.78 1002.91 1003.09 1003.32 1003.60 1003.91 1004.24 1004.60 1004.99 1005.39 1005.82 1006.28 1006.78 1007.31 1007.89 1008.50 1009.12 1009.73 1010.32 1010.84 1011.30 1011.66 1011.92 1012.08 1012.14 1012.12 1012.05 1011.93 1011.81 1011.69 1011.61 1011.56 1011.56 1011.62 1011.73 1011.90 1012.11 1012.36
1002.21 1001.93 1001.71 1001.56 1001.48 1001.48 1001.57 1001.74 1002.00 1002.33 1002.72 1003.16 1003.63 1004.13 1004.64 1005.16 1005.69 1006.23 1006.79 1007.36 1007.94 1008.52 1009.08 1009.62 1010.12 1010.55 1010.91 1011.18 1011.36 1011.47 1011.51 1011.49 1011.43 1011.37 1011.30 1011.26 1011.26 1011.30 1011.38 1011.51 1011.69 1011.90 1012.14
1001.28 1000.90 1000.59 1000.35 1000.21 1000.18 1000.26 1000.45 1000.76 1001.17 1001.66 1002.21 1002.81 1003.43 1004.05 1004.66 1005.26 1005.85 1006.41 1006.96 1007.48 1007.99 1008.48 1008.94 1009.36 1009.73 1010.06 1010.32 1010.52 1010.67 1010.76 1010.81 1010.84 1010.85 1010.87 1010.90 1010.95 1011.04 1011.16 1011.31 1011.48 1011.68 1011.90
1000.12 999.69 999.33 999.06 998.91 998.88 998.99 999.24 999.62 1000.12 1000.72 1001.39 1002.11 1002.85 1003.58 1004.28 1004.94 1005.56 1006.11 1006.62 1007.08 1007.50 1007.88 1008.24 1008.56 1008.86 1009.13 1009.37 1009.59 1009.77 1009.92 1010.05 1010.17 1010.28 1010.39 1010.51 1010.63 1010.77 1010.93 1011.10 1011.27 1011.44 1011.62
998.73 998.28 997.93 997.69 997.58 997.60 997.78 998.11 998.58 999.17 999.88 1000.66 1001.49 1002.33 1003.15 1003.92 1004.62 1005.24 1005.79 1006.24 1006.63 1006.95 1007.23 1007.47 1007.70 1007.92 1008.13 1008.35 1008.57 1008.79 1009.02 1009.24 1009.46 1009.67 1009.89 1010.10 1010.30 1010.50 1010.69 1010.87 1011.03 1011.17 1011.30
997.17 996.76 996.47 996.31 996.28 996.40 996.67 997.08 997.64 998.33 999.12 999.98 1000.88 1001.78 1002.65 1003.46 1004.18 1004.79 1005.30 1005.70 1006.01 1006.24 1006.42 1006.57 1006.72 1006.87 1007.05 1007.25 1007.49 1007.76 1008.06 1008.38 1008.71 1009.04 1009.36 1009.67 1009.95 1010.21 1010.43 1010.62 1010.77 1010.88 1010.96
995.58 995.27 995.09 995.04 995.13 995.36 995.72 996.23 996.86 997.60 998.43 999.32 1000.24 1001.16 1002.03 1002.82 1003.52 1004.11 1004.57 1004.91 1005.15 1005.32 1005.42 1005.51 1005.60 1005.71 1005.87 1006.09 1006.36 1006.70 1007.08 1007.49 1007.93 1008.37 1008.80 1009.20 1009.56 1009.87 1010.13 1010.33 1010.47 1010.56 1010.61
994.17 993.99 993.95 994.04 994.26 994.59 995.05 995.61 996.27 997.02 997.84 998.70 999.58 1000.45 1001.27 1002.01 1002.65 1003.18 1003.59 1003.88 1004.07 1004.18 1004.25 1004.30 1004.36 1004.47 1004.64 1004.89 1005.21 1005.61 1006.07 1006.58 1007.12 1007.66 1008.18 1008.66 1009.09 1009.46 1009.75 1009.98 1010.12 1010.21 1010.24
993.17 993.14 993.25 993.48 993.81 994.24 994.75 995.33 995.97 996.67 997.42 998.19 998.97 999.73 1000.45 1001.09 1001.65 1002.11 1002.46 1002.70 1002.86 1002.94 1002.99 1003.04 1003.11 1003.24 1003.43 1003.72 1004.10 1004.56 1005.09 1005.67 1006.28 1006.90 1007.49 1008.04 1008.53 1008.95 1009.28 1009.53 1009.70 1009.80 1009.84
992.76 992.90 993.15 993.50 993.92 994.40 994.92 995.46 996.04 996.64 997.26 997.89 998.52 999.13 999.71 1000.24 1000.70 1001.07 1001.36 1001.57 1001.70 1001.78 1001.84 1001.90 1001.99 1002.14 1002.37 1002.68 1003.09 1003.59 1004.16 1004.78 1005.43 1006.09 1006.72 1007.31 1007.84 1008.30 1008.67 1008.96 1009.17 1009.31 1009.39
993.05 993.33 993.71 994.15 994.62 995.11 995.59 996.06 996.53 996.99 997.45 997.91 998.37 998.82 999.25 999.65 1000.00 1000.30 1000.54 1000.71 1000.83 1000.92 1000.98 1001.06 1001.16 1001.33 1001.56 1001.88 1002.28 1002.77 1003.33 1003.94 1004.58 1005.23 1005.87 1006.47 1007.01 1007.50 1007.90 1008.24 1008.50 1008.69 1008.83
994.03 994.42 994.89 995.38 995.86 996.31 996.73 997.10 997.43 997.74 998.03 998.32 998.62 998.91 999.21 999.49 999.76 999.99 1000.18 1000.33 1000.44 1000.53 1000.59 1000.67 1000.77 1000.91 1001.11 1001.39 1001.74 1002.16 1002.65 1003.19 1003.77 1004.36 1004.95 1005.52 1006.05 1006.54 1006.97 1007.35 1007.67 1007.94 1008.15
995.56 996.04 996.55 997.05 997.51 997.91 998.23 998.49 998.70 998.86 999.01 999.16 999.31 999.49 999.68 999.88 1000.07 1000.26 1000.42 1000.55 1000.64 1000.71 1000.76 1000.80 1000.86 1000.94 1001.06 1001.24 1001.48 1001.79 1002.15 1002.57 1003.03 1003.51 1004.01 1004.51 1004.99 1005.46 1005.90 1006.31 1006.69 1007.02 1007.33
Thickness
5795 5792 5789 5786 5784 5781 5778 5777 5775 5773 5772 5770 5769 5768 5766 5764 5762 5760 5759 5756 5753 5752 5751 5749 5746 5745 5745 5743 5741 5738 5734 5730 5723 5722 5721 5717 5710 5707 5704 5701 5699 5696 5693
5797 5793 5790 5787 5785 5782 5780 5778 5776 5773 5772 5770 5769 5767 5765 5764 5761 5759 5757 5756 5753 5750 5749 5747 5745 5744 5740 5739 5737 5734 5731 5727 5723 5717 5716 5713 5707 5704 5702 5699 5699 5697 5693
5799 5794 5790 5787 5784 5782 5780 5779 5776 5774 5771 5770 5768 5766 5764 5763 5761 5759 5756 5754 5752 5750 5748 5745 5742 5740 5736 5736 5732 5731 5729 5727 5722 5717 5714 5710 5707 5704 5699 5697 5696 5692 5691
5800 5795 5790 5787 5785 5782 5780 5778 5776 5773 5771 5769 5768 5765 5764 5762 5760 5758 5756 5753 5750 5748 5746 5743 5741 5738 5734 5732 5730 5727 5725 5722 5719 5716 5712 5708 5705 5701 5697 5694 5692 5690 5688
5798 5794 5791 5788 5785 5782 5779 5777 5775 5773 5771 5768 5766 5764 5762 5761 5760 5757 5755 5752 5749 5746 5744 5742 5739 5735 5731 5728 5727 5724 5721 5718 5716 5713 5710 5706 5702 5697 5695 5694 5690 5689 5686
5796 5793 5791 5787 5783 5781 5778 5776 5773 5771 5769 5767 5764 5763 5761 5761 5757 5753 5751 5750 5747 5744 5741 5739 5737 5732 5729 5724 5721 5717 5715 5713 5711 5709 5707 5702 5698 5697 5693 5691 5688 5684 5681
5794 5792 5789 5785 5782 5779 5778 5774 5771 5769 5767 5764 5762 5760 5759 5756 5752 5749 5745 5746 5744 5741 5738 5735 5735 5734 5727 5725 5719 5714 5711 5707 5704 5704 5702 5699 5697 5694 5690 5687 5683 5680 5678
5792 5789 5786 5783 5780 5777 5775 5772 5769 5767 5765 5763 5761 5759 5757 5754 5749 5745 5742 5742 5741 5739 5736 5733 5730 5728 5725 5720 5718 5715 5712 5709 5704 5700 5699 5697 5695 5691 5687 5684 5681 5677 5675
5790 5787 5785 5781 5778 5774 5772 5769 5767 5764 5763 5761 5759 5757 5754 5751 5746 5742 5738 5740 5738 5736 5733 5730 5726 5724 5718 5713 5712 5710 5708 5707 5702 5698 5694 5692 5688 5685 5682 5680 5677 5673 5671
5788 5785 5782 5779 5776 5773 5771 5767 5765 5762 5760 5759 5756 5754 5752 5750 5744 5739 5734 5738 5735 5734 5730 5727 5720 5717 5712 5707 5706 5705 5702 5702 5701 5697 5692 5688 5686 5682 5678 5675 5673 5670 5668
5786 5782 5779 5775 5773 5770 5767 5763 5760 5758 5757 5754 5752 5751 5749 5747 5742 5736 5731 5733 5733 5730 5728 5725 5720 5711 5705 5701 5698 5699 5697 5695 5696 5695 5692 5689 5685 5682 5678 5673 5670 5667 5664
5781 5777 5774 5771 5769 5768 5762 5758 5755 5753 5750 5748 5746 5745 5745 5743 5739 5734 5729 5725 5724 5724 5722 5721 5715 5706 5700 5695 5693 5691 5689 5687 5691 5691 5689 5686 5683 5679 5676 5672 5667 5663 5660
5774 5771 5769 5766 5763 5762 5758 5754 5751 5748 5749 5746 5744 5742 5741 5741 5736 5729 5724 5720 5716 5715 5716 5710 5704 5698 5694 5691 5687 5685 5682 5684 5685 5684 5682 5681 5679 5676 5672 5668 5664 5659 5655
5768 5765 5763 5760 5757 5755 5753 5751 5749 5747 5745 5743 5740 5738 5737 5735 5732 5728 5723 5717 5711 5708 5707 5702 5695 5691 5688 5686 5685 5682 5681 5683 5681 5679 5678 5676 5674 5671 5667 5664 5659 5656 5651
5762 5760 5758 5756 5754 5749 5747 5746 5744 5743 5741 5737 5735 5733 5731 5728 5725 5720 5717 5715 5711 5706 5700 5698 5695 5692 5689 5687 5686 5684 5681 5679 5676 5675 5672 5670 5667 5665 5662 5659 5654 5651 5646
5756 5754 5754 5752 5748 5746 5743 5739 5734 5733 5729 5725 5723 5722 5722 5718 5714 5710 5706 5703 5698 5694 5691 5692 5690 5688 5685 5684 5683 5681 5678 5676 5673 5670 5667 5664 5661 5659 5655 5653 5649 5645 5642
5749 5748 5747 5746 5744 5740 5738 5735 5730 5724 5718 5715 5713 5711 5709 5706 5703 5699 5695 5691 5688 5683 5685 5688 5686 5684 5682 5680 5678 5676 5674 5672 5668 5665 5661 5658 5655 5653 5650 5647 5643 5640 5637
5742 5741 5739 5738 5737 5734 5732 5729 5726 5722 5717 5714 5708 5702 5699 5696 5693 5689 5685 5682 5682 5680 5682 5682 5680 5679 5676 5673 5671 5669 5667 5664 5660 5658 5655 5652 5649 5645 5643 5640 5638 5634 5631
5734 5734 5732 5730 5729 5727 5724 5721 5719 5715 5712 5709 5706 5700 5692 5687 5683 5680 5676 5679 5681 5678 5677 5675 5674 5672 5669 5666 5663 5660 5658 5654 5652 5649 5647 5644 5641 5638 5636 5634 5631 5626 5623
5726 5723 5721 5721 5720 5718 5715 5712 5710 5707 5704 5700 5698 5697 5691 5685 5682 5678 5674 5675 5674 5673 5670 5668 5667 5664 5661 5658 5655 5651 5648 5646 5643 5641 5638 5635 5633 5631 5629 5627 5624 5621 5618
5719 5716 5711 5712 5712 5709 5707 5703 5700 5697 5695 5693 5690 5689 5681 5681 5679 5675 5672 5670 5668 5666 5663 5660 5658 5655 5653 5649 5647 5644 5640 5638 5635 5632 5629 5627 5624 5622 5620 5619 5616 5615 5613
5710 5708 5705 5703 5702 5699 5697 5695 5692 5689 5687 5685 5682 5679 5671 5673 5673 5670 5667 5664 5661 5658 5656 5652 5650 5647 5644 5641 5638 5635 5632 5629 5626 5622 5619 5617 5615 5613 5612 5610 5608 5606 5605
5700 5700 5697 5695 5692 5687 5686 5686 5684 5682 5679 5677 5675 5672 5667 5665 5664 5661 5658 5656 5653 5650 5647 5644 5641 5639 5636 5633 5630 5626 5623 5620 5616 5613 5610 5607 5605 5603 5602 5601 5599 5598 5597
5692 5690 5688 5685 5683 5681 5678 5676 5674 5673 5671 5669 5666 5663 5660 5657 5654 5651 5648 5646 5643 5640 5637 5635 5632 5629 5625 5621 5618 5616 5612 5608 5605 5603 5600 5598 5596 5594 5593 5591 5590 5589 5587
5682 5680 5678 5676 5673 5671 5668 5666 5664 5662 5660 5659 5657 5653 5651 5648 5645 5642 5639 5636 5633 5630 5628 5625 5622 5619 5615 5610 5607 5602 5597 5593 5590 5589 5588 5587 5586 5584 5582 5581 5580 5578 5577
5672 5669 5667 5665 5663 5660 5658 5656 5653 5651 5650 5649 5647 5644 5641 5638 5635 5632 5629 5626 5623 5620 5617 5614 5611 5607 5602 5598 5593 5588 5584 5581 5578 5575 5575 5575 5575 5574 5572 5571 5569 5568 5567